Theta_e
338 338 338 339 339 339 339 338 339 339 339 338 338 339 338 337 337 337 337 337 337 336 335 335 335 335 335 335 335 335 333 333 333 333 333 331 331 331 331 330 332 335 335 334 334 334 335 335 334 333 333 333 333 332 332 332 332 331 330 330 331 331 331
337 337 337 338 338 338 338 337 337 337 338 337 337 338 337 337 336 335 336 337 337 336 335 335 335 334 335 335 335 334 333 332 333 333 332 332 331 330 330 329 331 335 336 334 333 333 335 336 335 333 333 332 332 332 332 332 332 331 330 330 330 330 330
336 336 336 336 336 336 336 336 335 335 336 335 335 336 337 337 336 335 334 335 336 336 335 335 335 334 334 334 334 335 334 333 333 333 332 332 332 330 331 332 334 335 335 334 334 334 335 334 334 334 333 332 332 331 332 333 332 331 330 330 330 330 330
335 335 335 335 335 335 335 335 335 335 335 334 334 335 336 336 336 334 333 333 335 335 334 335 334 334 334 334 334 335 335 334 333 332 332 333 332 331 331 333 335 335 335 334 334 334 334 333 333 335 333 332 332 332 333 333 332 331 330 331 331 330 329
333 334 334 335 335 334 334 334 334 335 335 334 333 333 334 334 335 334 333 332 334 334 335 334 334 333 333 333 334 334 334 335 334 333 333 334 333 332 332 333 335 335 334 334 333 333 334 333 333 334 332 331 332 333 333 333 332 331 330 331 331 330 330
329 330 332 333 334 334 334 334 334 334 335 334 334 333 333 333 334 334 334 333 333 334 334 334 334 333 332 333 334 334 334 335 334 334 334 334 333 333 333 333 334 335 334 333 334 334 333 333 333 332 331 329 330 332 333 334 333 332 331 332 331 330 330
325 327 329 330 331 332 333 334 334 334 334 334 334 333 332 333 333 334 334 334 334 334 334 334 334 333 333 332 334 334 334 334 334 334 334 334 334 333 333 333 333 334 333 332 333 333 332 333 333 333 331 331 330 330 332 334 333 332 332 331 331 330 330
324 325 326 327 328 329 330 331 333 333 332 333 334 334 332 332 333 333 333 333 333 333 334 334 334 334 333 333 333 334 334 335 334 334 334 334 334 333 333 333 333 334 332 331 332 334 332 332 333 332 330 331 332 331 331 333 333 332 332 331 331 330 330
322 323 324 325 325 326 326 328 330 331 332 332 333 333 333 332 332 332 333 333 333 332 333 333 333 334 334 334 334 334 334 334 334 334 334 333 334 333 333 333 333 333 332 333 334 334 332 331 331 331 330 331 333 333 334 333 333 332 331 330 330 330 330
321 321 322 323 323 323 324 325 326 328 329 330 332 333 333 332 332 332 332 332 332 332 333 332 332 333 334 334 334 334 334 334 333 333 333 333 333 333 334 334 334 333 333 334 334 333 332 331 331 330 330 330 331 332 334 334 333 332 331 330 329 330 330
320 320 320 321 321 322 323 323 324 324 325 327 329 331 332 332 332 332 332 331 332 332 332 332 331 331 333 333 333 333 333 333 332 332 332 332 333 333 334 334 334 334 333 333 334 333 332 331 331 330 330 330 329 331 332 333 333 331 330 330 329 329 330
319 319 319 319 319 320 321 321 321 322 323 324 326 328 330 331 331 331 331 331 331 331 331 331 331 331 332 331 331 332 332 332 331 332 332 332 332 333 334 334 333 334 333 333 334 334 332 331 331 331 331 331 330 330 330 332 335 333 330 329 329 329 330
318 318 318 318 319 319 319 320 320 321 322 323 324 326 328 329 329 330 330 329 330 330 330 329 330 331 331 331 332 332 333 333 332 332 332 332 332 333 333 334 333 333 333 334 335 335 332 332 332 331 332 331 329 330 331 332 335 335 330 329 330 329 330
317 317 317 317 317 318 318 318 319 320 321 321 322 324 325 326 328 329 330 329 329 329 329 329 329 330 331 331 332 333 333 333 333 332 332 332 332 333 333 333 333 332 332 334 335 334 332 331 332 332 331 331 330 331 332 332 333 333 330 329 330 329 329
316 316 316 316 316 316 317 317 318 318 319 319 320 321 323 324 325 327 328 329 330 329 329 328 328 330 330 329 330 332 333 333 332 331 331 331 331 332 333 333 333 332 332 333 334 333 332 331 331 331 331 331 332 332 333 332 332 331 329 329 329 329 329
315 315 315 315 315 315 315 316 316 316 316 317 318 319 320 321 322 323 324 327 329 329 329 329 329 330 330 329 329 330 332 332 331 329 330 330 330 331 332 332 333 332 332 332 332 332 332 331 331 331 331 331 331 331 332 332 331 330 330 330 330 329 329
314 314 314 314 314 314 314 314 314 314 314 315 315 316 317 318 319 320 320 322 325 327 329 329 329 329 329 329 329 330 331 332 331 330 330 330 329 330 331 331 332 332 332 332 332 332 332 332 331 332 331 331 329 328 331 331 330 330 329 329 331 331 329
313 313 313 313 313 313 313 313 313 313 313 313 313 314 314 315 316 317 317 318 319 322 325 327 328 329 329 329 329 329 330 331 331 331 331 331 330 330 331 331 331 332 333 332 332 332 333 332 331 331 331 330 329 328 330 331 330 330 329 329 331 331 329
312 312 312 312 312 311 312 311 311 311 311 311 311 311 312 312 313 314 314 314 315 318 320 324 327 327 326 327 329 330 330 330 330 330 330 330 330 330 330 330 331 332 332 332 332 332 332 332 331 331 331 330 329 328 330 331 331 331 330 329 330 330 329
311 311 311 311 311 310 311 310 310 310 310 310 310 309 310 310 310 311 311 311 312 313 317 322 322 318 317 319 323 327 329 329 328 329 330 329 329 329 329 329 330 330 330 332 332 332 331 332 331 330 331 331 330 329 330 331 331 330 329 328 328 329 328
310 310 310 310 309 309 309 309 309 309 309 309 308 308 308 308 308 308 308 308 308 309 313 317 315 311 311 314 317 320 325 328 328 328 329 329 329 330 330 330 329 328 329 331 332 332 330 330 331 331 330 329 329 330 330 329 330 329 328 327 327 327 326
309 309 309 309 309 308 308 308 308 308 308 308 307 307 307 306 306 306 306 306 306 306 308 311 309 306 306 309 312 316 320 324 327 328 328 328 328 329 329 329 329 329 329 329 331 332 330 330 332 332 330 329 329 330 329 327 328 328 327 327 327 327 326
308 308 308 308 308 308 307 307 307 307 307 307 306 306 305 305 305 305 304 304 305 304 305 306 304 303 305 306 308 313 317 321 324 327 328 327 326 327 328 329 330 329 329 329 330 332 331 331 332 331 330 330 330 330 328 328 329 327 326 326 326 326 326
307 307 307 307 307 307 307 307 306 306 306 306 306 305 305 304 304 304 303 303 303 303 304 303 301 301 304 306 307 310 314 317 321 324 327 327 327 327 327 328 329 330 329 329 331 332 331 331 331 331 331 331 331 331 329 329 329 326 325 326 326 326 327
307 307 307 307 307 306 306 306 306 305 305 305 305 305 304 304 304 303 302 302 302 301 302 301 299 300 303 305 306 308 312 315 318 321 325 327 327 327 328 328 329 329 330 330 330 331 331 332 331 331 331 331 331 331 329 329 329 327 326 326 325 325 326
306 306 306 306 306 306 305 305 305 305 305 305 304 304 304 303 303 302 302 301 300 300 300 299 297 299 302 304 305 308 311 314 316 319 322 325 327 327 328 328 327 328 329 330 328 328 329 330 330 330 330 330 330 330 329 330 330 328 327 327 326 326 326
306 306 306 305 306 305 305 305 304 304 304 304 304 304 303 303 303 302 301 300 299 299 299 297 296 298 301 303 305 307 310 313 316 318 320 323 325 327 327 326 327 328 329 328 327 327 327 328 329 329 329 328 329 329 329 330 330 329 328 328 327 327 326
305 305 305 305 305 305 305 305 304 304 304 304 303 303 303 303 303 302 301 300 299 299 298 297 296 297 299 302 305 308 310 312 315 317 320 322 324 327 326 325 327 328 327 327 327 327 327 328 329 328 327 325 326 327 327 328 329 329 329 328 327 327 326
304 304 304 304 304 304 304 304 304 303 303 303 303 303 302 302 302 302 301 300 299 299 298 297 296 296 298 301 305 308 309 311 313 315 318 320 322 325 326 325 326 327 327 326 326 327 328 328 328 327 326 324 324 326 327 328 328 328 329 328 328 327 326
304 304 304 304 304 304 303 303 303 303 303 303 303 302 302 302 302 302 301 300 299 299 298 297 296 296 297 300 304 306 308 310 312 315 317 319 321 323 325 326 326 327 326 326 325 326 328 328 327 327 325 324 324 325 326 326 327 327 328 328 327 328 328
304 303 303 303 303 303 303 303 303 303 303 303 302 302 301 301 301 301 300 300 299 299 298 297 296 296 296 298 301 303 305 308 310 313 316 317 319 322 324 325 326 326 325 325 326 326 327 327 327 326 324 322 321 322 322 323 324 325 326 326 325 324 323
303 303 303 303 303 303 302 302 302 302 302 302 302 302 301 301 300 300 299 299 298 298 298 297 297 296 296 297 298 300 301 303 304 307 308 309 311 314 317 320 324 326 325 325 325 326 327 327 327 325 322 320 319 318 318 320 322 323 323 322 320 318 318
303 303 302 302 302 302 302 301 301 301 301 302 301 301 301 301 300 299 299 298 297 297 297 297 297 297 297 296 296 297 298 299 299 301 302 302 303 305 307 311 316 322 325 325 325 326 326 326 326 323 321 321 319 317 317 319 320 320 319 317 315 314 315
302 302 302 302 302 302 301 301 301 301 301 301 301 301 301 300 300 299 299 298 297 297 296 296 296 297 297 297 296 296 296 296 297 298 300 300 300 300 301 303 306 313 321 324 324 326 326 324 324 322 321 321 320 318 317 317 317 316 315 313 311 311 311
302 302 302 302 301 301 301 300 300 300 300 300 300 300 300 300 300 299 299 298 297 297 296 296 296 296 297 297 297 296 296 296 297 297 298 298 298 298 299 299 300 305 316 321 320 322 323 323 323 323 321 319 318 317 316 315 314 312 311 310 309 308 308
303 302 302 302 301 301 301 300 300 300 300 300 300 300 300 300 300 299 299 298 298 297 297 296 296 296 296 297 297 297 297 296 296 297 296 297 297 298 299 299 299 301 310 316 317 317 319 320 320 320 319 316 314 314 313 312 311 310 308 307 307 306 306
302 302 302 302 301 301 301 300 300 300 300 300 300 300 300 300 300 299 299 298 298 298 297 296 296 296 296 296 296 297 297 297 297 297 296 296 297 298 299 300 300 300 304 310 312 311 313 315 315 314 314 313 312 312 311 310 309 308 306 305 305 304 304
Wind_Speed
8 8 8 9 10 10 11 12 11 12 13 13 15 16 17 19 18 19 22 21 21 23 23 24 26 26 26 24 22 23 25 24 25 24 22 20 17 16 20 21 17 12 8 8 8 8 4 3 7 10 13 17 18 19 19 18 16 16 16 16 16 16 15
11 11 11 12 12 12 12 12 12 13 14 14 15 16 16 18 19 19 22 22 21 22 24 25 25 26 26 26 24 24 24 23 25 26 23 20 19 18 19 22 20 14 10 10 11 11 7 4 4 5 9 12 14 18 20 18 16 16 17 16 15 17 16
13 13 14 14 14 15 14 14 14 14 15 15 15 16 15 16 18 19 20 22 21 22 24 25 25 26 27 27 26 25 25 24 25 25 24 21 21 21 20 20 18 14 10 9 11 11 7 4 3 3 9 11 10 15 20 21 19 16 18 17 15 17 16
16 15 15 15 15 16 16 15 15 15 15 15 15 16 16 16 17 17 18 19 19 21 23 24 25 26 27 28 28 27 25 25 26 25 23 23 21 22 22 20 18 16 14 10 11 13 9 6 4 3 8 12 12 15 19 22 21 18 18 18 17 17 16
17 17 16 16 17 18 17 17 16 15 15 17 17 17 16 15 15 14 16 17 18 19 21 22 24 26 26 28 29 28 25 25 27 26 24 24 23 22 23 22 18 17 19 17 15 15 14 11 9 4 5 10 10 13 19 21 20 20 19 19 19 17 16
19 18 17 17 18 20 19 17 17 16 16 17 18 18 17 15 13 12 14 16 16 17 19 19 21 23 25 26 28 28 26 25 26 27 27 27 26 26 26 24 22 19 20 20 17 17 15 13 11 7 7 13 12 10 16 21 18 18 19 20 20 19 18
19 19 18 18 19 21 21 19 18 18 18 18 17 18 18 16 15 14 14 15 15 15 17 18 19 21 22 24 26 25 25 26 26 27 28 28 28 28 26 25 25 23 21 19 18 19 18 14 13 10 7 11 12 7 11 17 18 16 17 20 21 20 19
17 17 17 18 19 21 22 21 20 20 20 20 17 17 19 18 17 17 16 16 16 15 16 18 20 21 20 22 25 24 23 24 25 26 28 28 29 29 28 26 25 24 21 21 22 22 20 17 15 13 8 6 6 6 7 11 15 17 18 20 23 22 21
16 17 17 18 20 21 21 22 23 23 21 21 19 18 18 18 18 19 18 18 18 17 17 18 20 21 19 20 23 23 23 23 23 25 28 29 29 29 29 28 26 24 23 23 24 24 22 21 18 15 13 11 6 4 5 6 8 13 18 20 21 22 23
17 17 18 19 20 20 20 21 23 24 23 22 21 19 19 20 20 19 19 18 19 19 18 18 19 20 21 22 24 23 24 24 23 25 28 29 29 29 28 28 27 25 25 24 24 25 24 22 21 17 16 16 11 5 4 5 5 9 16 20 19 20 24
18 18 19 20 21 20 20 20 22 23 24 23 23 21 21 21 20 20 22 21 20 20 19 19 20 20 21 24 25 25 25 24 23 26 27 27 28 28 28 28 27 26 25 23 22 24 25 23 22 20 17 16 17 13 7 5 6 11 18 21 19 20 25
19 20 20 21 21 20 20 21 22 22 24 24 24 23 23 23 22 22 24 24 22 22 21 19 19 20 20 22 24 24 23 23 24 27 28 27 27 27 27 27 28 27 26 24 21 22 24 22 20 19 16 15 18 18 12 7 5 9 17 22 20 21 27
20 21 21 21 20 20 21 21 22 22 23 23 23 23 24 25 26 25 24 25 25 25 24 22 21 21 20 20 21 21 21 22 23 25 27 28 27 26 26 27 29 29 27 24 22 22 23 21 18 18 20 18 17 18 15 10 4 4 13 21 20 20 27
21 22 22 21 21 21 21 21 21 21 22 23 23 23 23 24 26 27 26 27 25 24 24 26 24 21 20 19 19 20 22 24 24 24 25 27 26 25 25 26 29 30 28 25 23 22 24 23 20 20 22 21 18 18 16 12 7 5 9 17 18 18 24
21 22 23 22 22 23 22 22 22 22 22 22 22 23 23 24 25 26 27 27 26 23 23 25 24 21 20 20 20 22 23 23 23 23 24 25 25 25 25 26 28 29 28 28 27 24 23 24 22 22 23 22 19 18 17 15 12 9 9 14 18 18 22
22 23 23 22 23 24 23 23 22 22 22 22 22 22 22 24 24 25 27 26 25 25 23 23 23 22 21 21 21 23 23 24 24 23 24 25 26 26 26 24 25 26 27 28 29 27 24 23 22 23 24 23 21 20 19 17 15 13 11 14 19 20 23
23 24 24 23 24 24 24 23 23 23 23 23 23 23 22 22 24 25 27 26 26 25 24 25 25 23 22 21 22 23 23 25 25 24 24 25 27 26 26 26 25 25 25 26 28 27 25 23 23 25 26 24 23 24 22 20 18 16 14 14 17 21 25
24 24 24 24 25 25 24 24 24 23 23 24 24 23 23 23 23 24 27 29 29 28 25 26 27 25 24 23 23 24 24 24 25 24 24 25 26 26 25 26 26 23 23 25 27 26 25 24 24 25 26 24 25 26 22 20 19 19 18 19 19 20 24
24 24 25 25 25 25 25 25 25 24 24 24 24 24 24 24 23 24 26 29 29 29 28 26 25 26 26 25 24 23 23 23 24 25 25 23 25 27 27 27 27 25 24 25 27 27 26 25 25 24 23 21 23 24 20 17 18 19 18 18 19 20 23
23 24 25 25 25 26 26 26 26 25 24 24 25 25 25 25 25 25 26 28 28 28 28 25 24 27 29 28 26 23 22 22 22 23 24 24 24 26 27 28 27 26 26 27 27 28 27 25 26 26 24 22 20 20 18 15 14 16 14 11 13 11 8
23 24 24 25 25 26 26 27 26 26 25 25 25 26 26 27 26 26 27 29 30 29 26 23 27 33 34 32 30 26 22 22 22 22 23 23 24 26 26 27 27 26 29 29 27 26 27 26 27 29 26 22 20 20 20 16 12 16 18 14 12 9 1
23 24 24 25 26 26 27 27 27 26 26 26 25 26 26 27 27 27 28 29 30 30 27 25 32 38 37 35 32 29 25 21 21 23 23 21 22 24 24 25 27 28 31 30 26 27 29 28 29 30 25 22 22 21 21 18 15 16 17 13 11 13 12
23 24 25 25 26 26 26 27 28 27 26 27 26 26 27 27 28 28 29 29 30 29 26 28 35 39 37 35 33 30 26 23 21 22 22 22 23 25 25 24 26 29 30 28 27 29 30 28 29 29 25 26 27 24 20 18 18 20 18 15 15 18 17
23 23 24 25 25 26 26 27 27 27 27 27 28 27 27 28 28 28 28 29 30 29 27 31 40 42 38 34 32 30 27 24 21 20 21 22 22 24 24 24 26 28 28 27 27 30 30 27 27 27 25 25 26 25 23 20 20 23 24 22 20 21 19
22 23 24 24 25 25 25 26 27 27 27 27 28 28 28 29 28 28 29 29 30 30 28 33 43 45 40 35 31 28 26 24 22 20 21 21 21 21 21 21 22 24 25 24 24 27 28 27 27 27 26 24 21 22 24 23 20 22 26 24 21 21 20
22 23 23 24 24 25 25 26 27 27 27 27 28 28 29 29 28 29 30 30 31 30 29 37 47 47 41 36 32 27 25 24 23 22 20 19 21 24 23 20 20 23 24 24 22 23 25 25 24 25 26 25 23 22 23 23 20 21 26 25 22 21 22
22 23 23 24 24 25 25 26 26 27 26 27 28 28 29 29 29 30 30 30 32 31 30 40 51 48 42 38 33 28 24 22 22 23 21 18 19 23 23 20 21 22 21 21 21 22 23 23 23 25 23 20 20 22 21 18 17 19 21 22 21 20 21
22 23 23 24 24 25 25 25 25 26 25 26 27 27 28 27 27 30 32 31 32 31 31 41 52 50 44 41 34 29 25 21 20 21 21 20 19 21 20 19 22 22 19 18 20 22 23 23 24 24 20 13 11 15 17 16 16 17 17 18 18 18 18
22 23 24 24 24 24 25 25 25 25 24 24 26 26 27 27 26 29 32 33 34 33 33 42 51 51 47 43 36 31 27 24 21 20 20 19 19 21 20 19 23 25 23 22 22 24 25 24 24 23 20 16 14 15 15 15 16 16 16 16 15 15 17
23 23 24 25 24 24 25 25 26 26 24 23 25 26 27 27 26 28 30 33 35 34 35 43 50 51 50 45 38 33 29 25 22 21 19 19 19 20 20 21 22 23 24 24 23 23 25 25 23 20 19 19 19 18 16 15 15 14 15 15 13 13 18
22 22 23 25 24 24 24 25 26 26 24 23 24 26 26 25 25 27 29 30 33 33 35 42 48 51 51 48 41 36 31 26 24 22 15 11 10 13 16 19 20 20 21 23 23 23 25 25 22 18 20 21 20 19 17 15 15 14 14 13 12 14 16
21 22 23 24 24 24 24 24 25 26 25 24 23 24 25 25 24 27 28 29 32 33 34 40 46 49 51 51 46 40 35 31 28 26 21 16 11 5 5 10 17 21 20 21 24 26 28 27 23 19 21 22 20 18 18 16 16 15 14 13 12 13 13
21 22 23 24 24 24 24 24 25 25 24 24 24 24 25 25 24 25 26 28 31 34 34 38 44 47 48 50 49 44 40 36 30 28 26 24 23 19 14 7 5 17 22 22 23 26 28 26 23 21 23 25 22 20 19 17 16 17 17 16 15 14 15
19 20 22 23 22 23 24 25 25 24 23 23 23 23 24 25 24 24 25 27 31 34 35 37 42 45 45 47 48 47 44 39 32 30 30 29 28 28 25 21 13 3 17 20 18 20 23 23 22 24 27 27 24 21 20 20 20 20 20 20 19 18 17
17 18 20 22 21 21 22 23 25 24 23 22 22 23 23 23 24 23 23 25 28 33 36 38 40 44 44 43 44 45 44 41 35 33 34 34 32 31 28 25 22 10 9 15 12 13 19 21 23 27 26 22 22 24 25 26 25 24 23 22 22 20 19
15 17 19 20 20 20 19 21 23 24 23 22 21 21 22 22 22 22 22 23 25 29 35 37 39 41 43 43 42 41 40 40 38 35 33 34 33 30 27 26 24 18 12 16 15 14 17 20 23 26 25 24 25 28 29 29 27 26 25 25 24 23 22
12 15 16 17 18 19 19 19 21 22 22 22 21 20 20 20 21 22 22 21 23 26 30 35 38 39 40 41 41 39 37 36 36 36 34 33 32 30 27 25 24 24 23 24 25 25 26 28 30 29 28 28 28 28 29 30 29 29 30 29 28 26 24
Wind_Direction
327 318 311 302 294 292 290 285 286 283 278 274 271 269 268 268 266 261 257 253 250 251 256 253 245 241 239 234 230 227 224 218 216 218 220 223 226 231 240 239 232 227 199 179 174 174 190 210 205 210 215 216 211 212 213 209 209 204 195 201 198 193 201
338 333 324 315 309 305 298 294 293 288 284 284 281 277 275 276 275 271 265 258 254 253 254 252 248 247 242 235 231 228 223 219 220 223 219 217 220 226 235 234 228 227 222 211 196 191 203 197 179 192 201 210 215 216 215 208 207 206 202 204 202 198 200
340 337 330 325 321 317 311 306 303 297 293 294 291 284 278 279 283 282 275 264 260 262 258 253 251 249 245 239 234 228 223 219 219 222 221 218 220 221 226 228 221 215 215 216 204 197 198 194 196 192 185 191 206 214 214 208 203 202 201 200 200 201 198
344 338 331 326 320 317 316 316 315 312 309 308 300 291 286 286 286 286 285 275 268 269 266 262 257 251 248 245 237 230 224 221 219 222 220 217 217 216 219 226 223 215 213 212 204 198 195 190 194 208 197 198 203 205 207 208 205 200 198 198 200 202 195
348 342 334 329 325 323 323 323 324 322 317 314 307 300 297 295 290 287 290 285 275 272 271 268 262 254 252 249 240 230 223 219 220 223 221 217 216 216 219 224 224 223 221 219 214 206 201 193 187 192 199 204 216 208 196 198 203 200 197 200 202 200 193
351 347 341 337 336 336 334 330 327 323 317 313 311 309 305 300 296 289 288 287 280 274 273 274 270 261 257 250 239 230 223 219 220 223 224 223 221 221 223 221 219 223 225 224 221 215 210 199 194 197 196 204 217 208 184 185 194 197 199 203 201 194 192
351 348 344 342 340 340 340 335 327 321 317 314 312 312 311 305 299 290 284 284 281 275 273 275 274 269 262 249 236 230 225 221 222 223 222 222 224 225 225 222 221 222 224 228 226 217 211 203 200 197 192 210 214 196 178 183 187 191 200 206 202 194 193
350 346 341 341 341 340 340 338 333 327 321 317 313 315 316 311 302 294 287 283 281 279 275 273 271 269 262 246 236 234 230 223 222 223 221 220 221 223 222 224 227 226 223 226 227 220 213 212 211 197 186 216 212 184 187 184 184 195 202 200 198 196 193
352 349 343 341 341 339 338 336 335 335 332 326 321 320 320 317 309 300 296 292 286 282 276 272 271 268 260 245 235 232 229 224 221 222 223 223 222 221 221 222 227 228 224 225 227 224 219 218 216 203 197 212 212 184 193 181 182 203 202 193 190 194 194
358 355 349 345 343 340 338 335 334 334 335 334 331 325 321 320 316 308 305 301 293 288 283 277 276 271 261 249 240 234 233 231 227 224 224 224 223 220 219 220 222 224 224 225 228 228 225 221 218 216 215 215 216 213 194 184 186 201 199 192 188 189 191
3 360 354 349 345 342 341 339 336 334 333 334 334 331 327 324 319 313 310 307 299 292 285 282 282 275 265 257 250 245 244 242 237 230 225 225 224 221 221 223 222 222 223 223 225 226 224 223 222 224 227 224 226 227 212 194 192 190 192 195 194 188 185
4 1 356 352 349 346 344 342 339 336 334 334 334 333 332 329 325 319 313 309 301 292 287 285 280 273 269 264 257 251 248 245 239 233 228 226 224 220 222 225 221 221 224 223 224 226 223 224 222 223 228 231 238 238 222 206 203 188 185 191 197 188 181
3 1 356 356 354 349 346 345 342 339 338 339 337 334 331 330 330 327 321 316 309 301 300 298 287 279 277 268 258 254 249 244 240 234 232 230 227 223 224 226 225 224 225 222 222 224 223 220 216 222 226 223 237 246 224 196 187 178 181 186 189 185 182
2 360 357 359 357 352 349 348 346 344 342 341 340 338 334 331 331 330 327 324 316 308 306 305 300 294 285 271 260 254 248 246 244 239 235 232 230 229 228 229 228 224 222 220 220 222 221 217 213 222 228 221 230 242 223 194 177 173 188 189 184 183 185
3 1 359 359 358 356 354 352 350 348 346 344 343 341 338 335 334 334 332 327 320 316 313 307 303 299 291 282 272 262 252 247 244 239 237 233 229 228 228 229 228 224 223 222 222 224 220 217 215 218 222 220 226 233 220 204 190 178 190 196 191 189 189
5 3 2 360 359 359 357 355 353 351 349 348 345 343 341 339 338 337 337 335 328 325 320 310 301 296 294 290 281 270 258 250 246 241 239 237 233 229 227 227 226 225 226 224 225 226 220 215 215 216 217 217 224 231 222 210 200 187 184 192 196 195 190
5 5 3 0 0 0 359 358 356 354 352 351 349 346 344 343 341 339 339 340 337 333 326 317 310 303 298 292 282 272 261 256 256 250 242 237 236 234 230 229 227 226 226 223 222 224 219 215 215 218 220 217 222 232 222 208 207 200 193 195 199 197 190
5 4 2 2 2 1 1 2 360 358 356 354 352 350 348 346 344 342 340 338 339 338 335 328 321 314 305 295 285 277 267 261 258 253 247 240 236 234 231 230 229 227 226 225 223 221 217 215 215 218 222 220 225 233 221 206 209 206 201 203 203 199 194
6 4 2 3 4 2 3 4 3 1 359 357 356 353 352 349 347 345 343 342 341 340 340 339 334 330 323 310 297 286 274 267 262 257 253 246 239 236 234 233 231 226 223 225 227 225 219 217 216 215 217 217 223 229 218 203 206 206 206 213 210 199 191
5 5 3 4 4 4 5 5 5 3 1 0 359 356 355 351 349 347 344 345 346 344 345 349 349 348 346 338 324 307 289 277 271 266 260 251 241 236 235 234 233 230 228 227 229 228 222 219 220 218 214 213 219 224 216 202 201 206 213 234 240 228 184
6 7 5 5 6 6 6 6 6 5 4 3 1 359 357 353 351 350 347 347 348 350 353 352 348 348 349 345 339 330 312 291 278 273 267 257 242 234 235 238 238 236 233 230 230 229 222 215 218 221 216 213 218 221 217 209 201 206 213 222 234 247 234
7 7 5 6 8 7 6 6 6 6 5 4 3 360 359 357 354 352 350 348 348 352 355 351 345 347 348 346 342 337 326 309 290 278 270 262 250 242 241 243 243 241 237 230 228 230 224 214 216 220 215 209 214 214 213 211 194 192 207 216 210 209 206
8 7 6 6 7 6 6 6 5 6 5 5 4 2 360 358 357 355 352 351 350 350 353 350 346 346 347 347 344 337 330 319 302 284 270 262 256 248 242 238 237 238 239 234 227 226 223 218 219 219 211 210 216 211 204 202 189 181 195 211 203 195 199
9 8 8 6 6 6 6 5 6 5 4 5 4 3 2 360 359 357 354 353 352 350 351 350 348 347 346 345 343 338 331 323 309 291 275 264 254 246 242 240 238 236 235 233 229 226 225 222 220 215 207 210 217 212 202 195 184 179 189 203 202 191 191
10 9 8 7 7 7 7 6 6 4 4 5 4 3 3 1 1 360 357 356 354 353 352 349 348 349 348 345 342 337 331 324 315 298 282 270 258 249 244 240 238 237 233 229 227 226 223 219 216 214 210 209 213 214 210 203 191 182 186 193 196 192 193
12 10 9 8 8 9 9 9 9 5 3 3 5 5 3 1 2 1 360 359 356 354 353 350 350 351 349 346 343 337 330 323 316 307 293 278 264 256 250 238 233 235 232 225 222 225 225 218 214 217 217 213 210 209 208 204 198 193 193 196 197 197 201
14 11 10 10 10 10 10 11 11 8 5 4 5 5 2 1 3 2 0 359 357 356 355 354 355 356 353 348 344 338 332 324 316 310 303 292 273 259 248 231 223 225 224 220 219 227 231 223 215 214 213 209 203 199 198 196 188 188 195 203 205 205 207
15 12 12 13 13 12 11 12 12 10 9 7 5 4 2 0 3 5 3 1 359 359 357 357 359 1 357 352 347 342 338 332 323 313 304 298 284 265 247 231 227 226 225 225 221 222 228 225 219 213 204 193 186 188 194 196 190 190 193 198 204 206 205
15 14 13 13 15 15 12 11 11 9 9 11 10 7 4 1 2 5 6 6 4 3 1 -0 2 5 3 357 352 350 348 341 330 318 305 298 288 273 257 241 234 230 228 229 223 219 222 221 218 208 192 184 187 186 187 191 192 196 196 196 203 203 198
14 14 13 13 15 18 16 12 9 7 8 13 15 12 6 2 3 5 6 8 8 7 6 5 7 8 8 6 2 359 355 346 336 328 313 299 288 273 255 236 225 221 223 226 224 221 220 217 213 200 177 171 180 181 182 188 190 191 196 200 201 192 191
15 14 14 12 13 17 18 15 11 7 6 12 16 15 9 5 6 7 8 10 10 9 8 9 11 12 13 13 13 10 5 359 356 354 342 316 285 259 238 225 217 216 223 228 225 223 221 215 206 185 161 160 169 166 165 174 178 176 184 190 183 167 167
17 16 16 14 15 17 17 16 15 11 9 10 14 15 12 9 10 11 11 13 14 12 10 10 14 16 17 18 20 19 17 14 10 10 12 13 6 339 249 220 211 209 217 224 223 221 216 206 195 179 163 160 162 155 153 160 162 159 156 154 149 137 127
22 21 19 16 17 18 16 14 15 15 12 10 11 14 14 12 13 12 11 12 13 12 11 12 16 19 20 21 23 24 24 21 16 14 16 17 15 13 9 360 215 201 203 209 215 216 209 198 193 188 178 171 165 157 156 157 152 146 139 130 125 122 116
27 25 21 19 19 20 19 15 13 15 14 11 12 14 14 13 14 11 9 10 11 13 14 15 18 21 22 22 23 25 27 25 22 23 26 25 20 14 11 11 13 189 193 196 205 209 201 191 188 186 180 175 169 158 150 148 143 137 132 125 118 115 112
30 27 22 19 18 20 22 19 14 12 13 12 14 16 14 14 15 12 11 11 11 14 17 18 20 22 24 23 23 24 26 26 27 29 31 31 27 20 16 16 17 27 162 174 181 191 191 187 183 180 175 164 154 147 142 140 136 129 122 116 109 103 100
32 31 22 18 18 18 22 22 16 11 11 11 14 17 15 14 14 13 12 11 9 10 14 17 18 20 21 23 23 23 24 26 28 30 31 31 31 27 25 25 23 34 91 128 130 136 153 160 159 160 157 147 140 140 138 132 128 123 117 111 105 98 96
35 38 24 17 17 17 21 24 18 12 11 11 12 16 15 13 14 13 9 8 7 6 9 13 16 17 18 19 21 22 23 23 26 29 30 31 33 33 35 37 32 37 64 96 107 107 116 128 131 131 133 135 135 136 134 130 126 121 115 107 101 95 94